Home > Weather > Firenze > Past weeks

Flag for Italy Past Weather in Firenze, Italy — Yesterday and Last 2 Weeks

Now
81 °F

Clear.


Feels Like: 84 °F
Forecast: 64 / 94 °F
Wind: 1 mph from North

Location: Florence / Peretola

Current Time: Jul 27, 2016 at 9:57:11 AM

Latest Report: Jul 27, 2016 at 9:20 AM


Visibility: 5 mi

Pressure: 29.98 "Hg

Humidity: 70%

Dew Point: 70 °F

Location of FirenzeLocation

Past Weather in Firenze — Graph

°F

Firenze Temperature Yesterday

Maximum temperature yesterday: 97 °F (at 2:20 PM)
Minimum temperature yesterday: 68 °F (at 3:50 AM)
Average temperature yesterday: 81 °F

High & Low Weather Summary for the Past Weeks

 TemperatureHumidityPressure
High97 °F (Jul 19, 3:20 PM)94% (Jul 18, 5:50 AM)30.18 "Hg (Jul 18, 5:50 AM)
Low57 °F (Jul 16, 5:50 AM)16% (Jul 21, 5:50 PM)29.77 "Hg (Jul 13, 7:50 PM)
Average79 °F55%29.99 "Hg
* Reported Jul 12 8:20 AM — Jul 27 8:20 AM, Firenze, Weather by CustomWeather, © 2016

Note: Actual official high and low records may vary slightly from our data, if they occured in-between our weather recording intervals... More about our weather records

Advertising

Firenze Weather History for the Previous 24 Hours

Scroll right to see more
 ConditionsComfort  
Time TempWeatherWind HumidityBarometerVisibility
8:20 AM
Wed, Jul 27
79 °FSunny.2 mph70%29.98 "Hg10 mi
7:50 AM77 °FSunny.No wind74%29.98 "Hg10 mi
7:20 AM73 °FSunny.2 mph83%29.98 "Hg10 mi
6:50 AM72 °FClear.2 mph83%29.98 "Hg10 mi
6:20 AM70 °FClear.3 mph88%29.98 "Hg10 mi
5:50 AM68 °FPassing clouds.3 mph88%29.98 "HgN/A
5:20 AM70 °FClear.3 mph88%29.98 "Hg10 mi
4:50 AM70 °FClear.2 mph88%29.98 "Hg10 mi
4:20 AM72 °FClear.2 mph83%29.98 "Hg10 mi
3:50 AM72 °FClear.No wind83%29.98 "Hg10 mi
3:20 AM72 °FClear.5 mph83%29.98 "Hg10 mi
2:50 AM73 °FPassing clouds.3 mph78%29.98 "HgN/A
2:20 AM73 °FClear.2 mph83%29.98 "Hg10 mi
1:50 AM73 °FClear.1 mph83%29.98 "Hg10 mi
1:20 AM75 °FClear.2 mph78%29.98 "Hg10 mi
12:50 AM75 °FClear.5 mph78%29.98 "Hg10 mi
12:20 AM75 °FClear.3 mph78%29.98 "Hg10 mi
11:50 PM
Tue, Jul 26
75 °FClear.No wind78%29.98 "Hg10 mi
11:20 PM79 °FClear.No wind70%29.95 "Hg10 mi
10:50 PM81 °FClear.2 mph66%29.98 "Hg10 mi
10:20 PM81 °FPassing clouds.3 mph66%29.98 "HgN/A
9:50 PM82 °FClear.5 mph62%29.95 "Hg10 mi
9:20 PM82 °FPassing clouds.6 mph62%29.95 "HgN/A
8:50 PM88 °FPassing clouds.No wind49%29.95 "HgN/A
8:20 PM88 °FPassing clouds.3 mph49%29.92 "HgN/A
7:50 PM91 °FPassing clouds.3 mph41%29.92 "HgN/A
7:20 PM91 °FScattered clouds.3 mph38%29.92 "HgN/A
6:50 PM91 °FScattered clouds.3 mph41%29.92 "HgN/A
6:20 PM91 °FScattered clouds.5 mph41%29.92 "HgN/A
5:50 PM91 °FScattered clouds.5 mph44%29.92 "HgN/A
5:20 PM90 °FScattered clouds.5 mph46%29.92 "HgN/A
4:50 PM88 °FScattered clouds.8 mph49%29.95 "HgN/A
4:20 PM86 °FThunderstorms. Scattered clouds.8 mph55%29.95 "HgN/A
3:50 PM88 °FScattered clouds.12 mph49%29.92 "HgN/A
3:20 PM90 °FThundershowers. Scattered clouds.12 mph49%29.92 "HgN/A
2:50 PM93 °FPassing clouds.6 mph36%29.92 "HgN/A
2:20 PM97 °FPassing clouds.3 mph32%29.92 "HgN/A
1:50 PM95 °FPassing clouds.7 mph34%29.95 "HgN/A
1:20 PM95 °FPassing clouds.8 mph32%29.95 "HgN/A
12:50 PM93 °FPassing clouds.10 mph36%29.95 "HgN/A
12:20 PM91 °FSunny.5 mph44%29.98 "Hg10 mi
11:50 AM88 °FPassing clouds.5 mph59%29.98 "HgN/A
11:20 AM84 °FSunny.3 mph66%29.98 "Hg10 mi
10:50 AM81 °FClear.3 mph74%29.98 "Hg5 mi
10:20 AM81 °FClear.2 mph70%29.98 "Hg5 mi
9:50 AM77 °FPassing clouds.3 mph83%29.98 "Hg5 mi
9:20 AM77 °FPassing clouds.2 mph79%29.98 "Hg5 mi
Weather by CustomWeather, © 2016

See weather overviewHow to use our weather pages